OpenBCM V1.13 (Linux)

Packet Radio Mailbox

DB0FHN

[JN59NK Nuernberg]

 Login: GUEST





  
I0OJJ  > AMSAT    05.07.26 02:32l 325 Lines 15359 Bytes #999 (0) @ WW
BID : A5R3P_I0OJJ
Read: OE5RCO DJ6UX GUEST
Subj: 2Line Orbital Elements
Path: DB0FHN<OE2XZR<OE6XPE<DB0RKB<DK0WUE<HB9ON<IK7NXU<IK6IHL<IZ3LSV<I0OJJ
Sent: 260705/0025z @:I0OJJ.ITA.EU [Rome] $:A5R3P_I0OJJ

>From i0ojj@i0ojj.ampr.org Sun Jul  5 02:25:38 2026
Received: from i0ojj.ampr.org by i0ojj.ampr.org (JNOS2.0q.1) with SMTP
	id AA17064565 ; Sun, 05 Jul 2026 02:25:38 +0200
Received: by i0ojj.ampr.org with SMTP
	id AA17064562 ; Sun, 05 Jul 2026 02:25:35 +0200
Message-Id: <17064563@i0ojj.ampr.org>
>From: i0ojj@i0ojj.ampr.org

SB KEPS @ AMSAT  $ORB26186.1
2Line Orbital Elements 26186.AMSAT

QST de W1STR

AMSAT Orbital Elements for Amateur Satellites in TLE Format
>From Orbital Analysis Office
New England Sci-Tech STEM Education Center
Natick MA July 05, 2026
To all radio amateurs


These element sets describe the orbits of various satellites 
in use by the amateur radio community. For details see:
www.amsat.org/keplerian-elements-formats/

A daily update of element sets is available at:
www.amsat.org/tle/daily-bulletin.txt
or without bulletin text:
www.amsat.org/tle/dailytle.txt


AO-07
1 07530U 74089B   26185.28851557 -.00000043  00000-0  19074-4 0  9999
2 07530 101.9900 198.7133 0012661  98.4849 273.4162 12.53698407362660
UO-11
1 14781U 84021B   26185.33680631  .00001623  00000-0  17048-3 0  9993
2 14781  97.8067 150.7210 0008909 121.3323 238.8769 14.90828993259683
LO-19
1 20442U 90005G   26185.48457947  .00000187  00000-0  83428-4 0  9991
2 20442  98.8845 207.7664 0012083 150.7420 209.4442 14.34128816904872
AO-27
1 22825U 93061C   26184.64172526  .00000129  00000-0  66110-4 0  9992
2 22825  98.6874 252.0488 0009299  57.1001 303.1075 14.30946735709350
FO-29
1 24278U 96046B   26185.53759951 -.00000022  00000-0  11740-4 0  9996
2 24278  98.5226  32.0316 0350733  51.5389 311.6677 13.53275016475510
GO-32
1 25397U 98043D   26185.41439164  .00000072  00000-0  51499-4 0  9995
2 25397  99.0076 178.6080 0001839 131.9279 228.2056 14.24431783453781
ISS
1 25544U 98067A   26185.47597407  .00009720  00000-0  18499-3 0  9997
2 25544  51.6303 214.5154 0006744 255.1217 104.9025 15.48889796574435
NO-44
1 26931U 01043C   26185.48093683  .00000178  00000-0  97381-4 0  9990
2 26931  67.0488 199.5420 0006014 265.8312  94.2103 14.31962328292926
SO-50
1 27607U 02058C   26185.41777487  .00001077  00000-0  14408-3 0  9999
2 27607  64.5521  75.6740 0074820 259.2514 100.0163 14.83083246267011
CO-55
1 27844U 03031E   26185.45862507  .00000342  00000-0  16664-3 0  9996
2 27844  98.6738 193.8003 0010506 130.4916 229.7180 14.24346609194134
RS-22
1 27939U 03042A   26185.66386074  .00000723  00000-0  11957-3 0  9999
2 27939  98.3470  10.5164 0010427 207.8599 211.3484 14.73498166218120
CO-65
1 32785U 08021C   26185.41716368  .00007175  00000-0  44988-3 0  9990
2 32785  97.8290 167.1964 0007935 342.3852  17.7100 15.09624900987799
CO-66
1 32791U 08021J   26185.43263930  .00026699  00000-0  82865-3 0  9999
2 32791  97.7524 184.1606 0001728 182.8998 177.2234 15.33363820989935
RS-30
1 32953U 08025A   26185.56220166 -.00000042  00000-0 -37474-3 0  9993
2 32953  82.5051 344.6300 0018503 273.6836  86.2128 12.43179979821850
SRMSAT
1 37841U 11058D   26185.61869365  .00000423  00000-0  85947-4 0  9990
2 37841  19.9730 313.9643 0011848  35.9930  68.0324 14.11579515760289
ZACUBE-1
1 39417U 13066B   26184.93739966  .00003964  00000-0  30713-3 0  9992
2 39417  97.8036 147.3589 0043122 191.4127 168.6124 15.01282961683249
Delfi-N3xt
1 39428U 13066N   26185.51135460  .00011336  00000-0  97762-3 0  9997
2 39428  97.8322 105.8072 0075100 148.0327 212.5483 14.95264717677214
GOMX-1
1 39430U 13066Q   26185.61741005  .00001502  00000-0  23044-3 0  9995
2 39430  97.6469  24.9795 0129188  22.1376 338.5340 14.69517955672472
LO-74
1 39440U 13066AA  26185.61268961  .00007477  00000-0  68654-3 0  9994
2 39440  97.8913 134.6663 0056422 331.4449  28.3683 14.93916607679597
AO-73
1 39444U 13066AE  26185.35696855  .00009451  00000-0  58074-3 0  9995
2 39444  97.8284 157.1639 0037391 143.1245 217.2566 15.09704322682254
DTUSAT-2
1 40030U 14033W   26185.27692877  .00009909  00000-0  53029-3 0  9997
2 40030  98.0870 184.0916 0008387 165.1149 195.0330 15.15240610655274
LILACSAT-2
1 40908U 15049K   26185.61920236  .00028852  00000-0  47880-3 0  9996
2 40908  97.4623 223.1276 0007475 174.2311 185.9029 15.52051783598451
Horyu-4
1 41340U 16012D   26182.79199294  .04204222 -38650-5  11151-2 0  9996
2 41340  30.9791 330.1929 0008660 346.1826  13.8606 16.27112331573163
Lapan A3
1 41603U 16040E   26185.61749406  .00005832  00000-0  18382-3 0  9997
2 41603  97.1497 181.1919 0008734 321.7541  38.3081 15.33225973557480
CAS-2T
1 41847U 16066G   26185.48597832  .00001682  00000-0  24203-3 0  9992
2 41847  98.3815 261.0243 0342747  77.1704 286.7545 14.44750691507292
TechnoSat
1 42829U 17042E   26184.87093637  .00003285  00000-0  23451-3 0  9999
2 42829  97.4295 341.8960 0018427  40.8087 319.4516 15.05054378489214
AO-91
1 43017U 17073E   26185.07439523  .00007880  00000-0  34433-3 0  9991
2 43017  97.4676  51.9443 0148130 270.3124  88.1134 15.12944188467946
S-Net D
1 43186U 18014G   26185.48271858  .00009180  00000-0  46959-3 0  9995
2 43186  97.5342  90.1654 0006988 330.2368  29.8466 15.16844458461388
S-Net B
1 43187U 18014H   26185.16466080  .00006505  00000-0  33423-3 0  9994
2 43187  97.5348  89.8363 0007562 325.2617  34.8121 15.16805289461335
S-Net A
1 43188U 18014J   26185.48150044  .00009299  00000-0  47549-3 0  9997
2 43188  97.5358  90.3636 0007419 325.0367  35.0378 15.16853371461385
S-Net C
1 43189U 18014K   26184.70683086  .00005845  00000-0  30072-3 0  9995
2 43189  97.5379  89.6708 0008639 318.2558  41.8015 15.16791813459811
Ten-Koh
1 43677U 18084G   26185.50006302  .00003641  00000-0  27519-3 0  9997
2 43677  98.0740  18.5915 0010412  62.9328 297.2957 15.03004485418761
PO-101
1 43678U 18084H   26185.57496054  .00003028  00000-0  24498-3 0  9994
2 43678  98.1207  22.5420 0013065 116.7030 243.5531 15.00529470418824
QO-100
1 43700U 18090A   26185.58373536  .00000157  00000-0  00000-0 0  9997
2 43700   0.0129  60.5903 0002294  81.3212  16.6260  1.00273806 27855
MinXSS-2
1 43758U 18099A   26185.48638251  .00059053  00000-0  11178-2 0  9995
2 43758  97.4525 262.2918 0007992 193.4881 166.6157 15.48150819416805
AO-95
1 43770U 18099N   26185.11680476  .00015402  00000-0  58164-3 0  9992
2 43770  97.4372 245.3036 0006932 287.7231  72.3251 15.27076980415801
SNUSat 2
1 43782U 18099AA  26185.09876178  .00011052  00000-0  48484-3 0  9999
2 43782  97.4043 238.2242 0009128 228.9636 131.0812 15.22099574415608
SnugLite
1 43784U 18099AC  26185.11203887  .00015691  00000-0  58428-3 0  9997
2 43784  97.3853 239.2283 0002480 192.6615 167.4563 15.27555966415908
ITASat 1
1 43786U 18099AE  26185.60840329  .00013021  00000-0  61886-3 0  9998
2 43786  97.4013 236.7736 0010761 293.4333  66.5770 15.19286795415554
EAGLET 1
1 43790U 18099AJ  26185.38039762  .00004811  00000-0  27537-3 0  9991
2 43790  97.4215 234.5941 0009410 288.2767  71.7440 15.13071078414932
ESEO
1 43792U 18099AL  26185.07618994  .00001191  00000-0  89657-4 0  9999
2 43792  97.3958 221.7416 0010242 277.2265  82.7797 15.04295396414341
JO-97
1 43803U 18099AX  26185.12210852  .00023140  00000-0  69954-3 0  9994
2 43803  97.4120 248.0201 0005813 193.8667 166.2417 15.34211411416222
Suomi 100
1 43804U 18099AY  26184.70259162  .00014005  00000-0  50200-3 0  9999
2 43804  97.4171 245.0375 0009372 212.7004 147.3657 15.28800766415942
ISAT
1 43879U 18111D   26185.08649588  .00141168  00000-0  12263-2 0  9990
2 43879  97.5866 121.6468 0005565 158.1781 201.9718 15.68623363413812
UWE-4
1 43880U 18111E   26185.55420394  .00067914  00000-0  13249-2 0  9997
2 43880  97.5847 114.7586 0004574 243.2837 116.7944 15.47262516413465
Sparrow
1 43881U 18111F   26185.57859138  .00421542  00000-0  21072-2 0  9996
2 43881  97.6103 128.1453 0006363 141.4067 218.7656 15.80690966414113
Prox-1
1 44339U 19036A   26185.59362930  .00027221  00000-0  26468-2 0  9993
2 44339  23.9962 357.9415 0005289 240.4887 119.5085 14.91071311376077
Taurus 1
1 44530U 19059C   26185.57427788  .00006780  00000-0  10809-2 0  9991
2 44530  98.6434 351.4838 0007373 252.7127 107.3272 14.72281845361206
TO-108
1 44881U 19093C   26185.61317888  .00001080  00000-0  12782-3 0  9993
2 44881  97.7524 257.4200 0014450  34.7843 325.4315 14.86547292354007
RS-44
1 44909U 19096E   26185.36136592  .00000016  00000-0  10565-4 0  9996
2 44909  82.5235 328.2921 0218587 104.1934 258.3557 12.79748976304544
SALSAT
1 46495U 20068K   26185.47776598  .00013616  00000-0  47010-3 0  9991
2 46495  97.8855 189.5980 0008208 234.4468 125.6006 15.30057656318001
CSS (TIANHE-1)
1 48274U 21035A   26184.22810215  .00007882  00000-0  10678-3 0  9998
2 48274  41.4672 224.3616 0002880 262.1202  97.9309 15.57904594296214
CUTE
1 49263U 21088D   26184.73468299  .00343331  52765-4  62438-3 0  9994
2 49263  97.4093 285.7161 0003158 220.5437 139.5607 16.01460563265194
TeikyoSat 4
1 49396U 21102B   26185.35541307  .00002396  00000-0  15288-3 0  9994
2 49396  97.3664 214.1714 0010729 228.5776 131.4533 15.09570292255310
Z-Sat
1 49399U 21102E   26185.59671638  .00005416  00000-0  26567-3 0  9992
2 49399  97.3309 220.3919 0016506 180.0351 180.0885 15.18397013256088
KOSEN 1
1 49402U 21102H   26185.37665967  .00010685  00000-0  40343-3 0  9993
2 49402  97.3168 227.2010 0014911 141.9491 218.2805 15.27086347256646
HO-113
1 50466U 21131B   26185.61757161  .00000591  00000-0  19608-3 0  9997
2 50466  98.4990 277.9134 0005145  57.1397 303.0287 14.41374031237623
SNUGLITE 2
1 52899U 22065F   26185.66011012  .00001420  00000-0  27772-3 0  9992
2 52899  98.2225 330.4617 0006820 338.4056  21.6858 14.64382486213554
UmKA 1 (RS40S)
1 57172U 23091G   26185.59456789  .00010726  00000-0  48485-3 0  9990
2 57172  97.5036 244.2261 0013927  63.6275 296.6388 15.21033126166656
